Location: Bezawada
(16.5136°N, 80.6297°E)
Time: 06:22:33
(UTC+00:00)

CZ-3 R/B - Pass Details

Date: 27 February 2020
Orbit: 352 x 10262 km, 28.4° (Epoch: 09 April)

Event Time Altitude Azimuth Distance (km) Brightness Sun altitude
Rises 21:43:12 0° 294° (WNW) 15,218 7.2 -47.1°
Enters shadow 21:59:56 - 293° (WNW) 13,453 6.9 -43.1°
Exits shadow 22:39:55 43° 275° (W) 6,094 4.9 -33.5°
Maximum altitude 22:50:44 59° 222° (SW) 3,680 4.1 -30.9°
Drops below altitude 10° 23:01:46 10° 143° (SE) 3,804 5.0 -28.2°
Sets 23:03:47 0° 138° (SE) 4,306 5.4 -27.8°
